Find Starlink 36952

NORAD ID: 68062 Int'l Des: 2026-041 Owner: SPXS Country: US Constellation: starlink operational
LEOCIRCULAR

实时位置

正在加载3D地球...

关于 Starlink 36952

正在加载描述...

即将过境

Passes for default location (London). Set your location on the main map for personalized predictions.

高度历史

Loading altitude history...

两行轨道根数

1 68062U 26041Y 26106.83335647 -.01634479 00000-0 -41703-1 0 9991
2 68062 53.1602 233.2244 0001359 105.5325 160.4061 15.42331054 6002
Epoch: Apr 16, 2026 • Age: 6 hours

当前状态

高度 452.3 km
速度 7.64 km/s
星下点 -31.97°S, 155.91°W
发射日期 Mar 2, 2026
运行时间 0.1 years
类型 internet

技术详情

分类 Payload
质量 575.00 kg
干质量 530.00 kg
总质量 575.00 kg
长度 0.30 m
直径 4.10 m
跨度 29.00 m
形状 Box + pan
制造商 SPXS
平台类型 Starlink V2MO
阶段状态 In Orbit
所有者/国家 SPXS/US

Most Searched